Location: Saint-Palais-sur-Mer
(45.6429°N, 1.0859°W)
Time: 00:20:43
(UTC+01:00)

ISS - Visible Passes

Search period start: 16 January 2021 00:00
Search period end: 26 January 2021 00:00
Orbit: 418 x 419 km, 51.6° (Epoch: 16 January)

Date Brightness Start Highest point End Pass type
(mag) Time Alt. Az. Time Alt. Az. Time Alt. Az.
17 Jan -1.3 19:27:45 10° SSE 19:28:21 12° SSE 19:28:21 12° SSE visible
18 Jan -1.5 20:14:36 10° SW 20:15:55 21° SSW 20:15:55 21° SSW visible
19 Jan -2.8 19:27:10 10° SSW 19:30:11 31° SE 19:30:24 30° SE visible
20 Jan -2.0 18:40:02 10° S 18:42:32 20° SE 18:44:49 11° E visible
20 Jan -2.2 20:15:41 10° WSW 20:17:47 35° WSW 20:17:47 35° WSW visible
21 Jan -3.8 19:27:54 10° SW 19:31:14 77° SSE 19:32:07 46° ENE visible
22 Jan -3.3 18:40:14 10° SW 18:43:29 48° SE 18:46:24 12° ENE visible
22 Jan -2.0 20:17:09 10° W 20:19:21 31° WNW 20:19:21 31° WNW visible
23 Jan -3.2 19:29:09 10° W 19:32:27 51° NNW 19:33:33 34° NE visible
24 Jan -3.6 18:41:14 10° WSW 18:44:35 73° NNW 18:47:44 12° ENE visible
24 Jan -1.7 20:18:43 10° WNW 20:20:40 24° NW 20:20:40 24° NW visible
25 Jan -2.6 19:30:40 10° WNW 19:33:46 33° NNW 19:34:49 27° NNE visible
